RH
7 6 6 6 6 5 5 5 4 4 4 4 4 4 4 4 4 4 4 4 4 4 4 4 4 4 5 4 4 5 5 5 5 5 5 4 4 4 5 5 5 5 5 5 5 4 4 4 4 5 5 5 6 7 8 10 10 11 11 11 11 11 9
6 5 5 5 5 5 4 4 4 4 4 3 4 3 3 4 3 3 4 4 4 4 4 4 4 4 4 4 4 4 5 5 5 5 5 4 4 4 5 5 5 5 5 5 5 5 4 5 4 5 5 5 5 6 7 9 10 10 11 12 11 12 11
5 4 4 4 4 4 4 4 4 3 3 3 3 3 3 3 3 3 3 4 4 4 4 4 4 4 4 4 4 4 4 5 4 5 4 4 4 4 5 5 5 5 5 5 5 5 4 4 5 5 5 5 5 6 7 8 9 10 10 12 12 12 12
4 4 4 4 4 4 3 3 3 3 3 3 2 3 3 2 3 3 3 3 3 3 3 3 3 4 4 4 4 4 4 4 4 4 4 4 4 5 5 5 5 5 5 5 5 5 5 5 5 5 5 6 5 5 6 7 8 9 10 11 12 12 12
4 3 4 4 3 3 3 3 3 2 2 2 2 2 2 2 2 2 2 2 3 3 3 3 3 3 4 4 4 4 4 4 4 4 4 4 4 5 4 5 6 5 5 5 5 5 5 5 5 5 5 6 6 5 6 6 7 8 9 10 11 12 13
4 4 3 3 3 3 3 2 2 2 2 2 2 2 2 2 2 2 2 2 2 3 2 3 3 3 3 4 3 4 4 4 4 4 4 4 4 4 5 5 5 5 5 6 5 5 5 5 5 5 5 6 6 6 6 6 6 7 8 9 10 11 13
4 3 3 3 3 2 2 2 2 2 2 2 2 2 2 2 2 2 2 2 2 2 2 3 3 3 3 3 3 4 4 3 4 4 4 4 4 4 5 5 5 5 6 6 5 5 5 5 5 5 6 6 6 6 6 6 6 7 7 8 9 10 11
3 3 3 3 2 2 2 2 2 2 2 2 2 2 2 2 2 2 2 2 2 2 2 2 3 3 3 3 3 3 3 3 3 4 4 4 4 4 4 5 5 6 6 6 6 5 5 5 5 6 6 6 6 6 6 6 6 6 7 7 8 9 10
2 2 3 3 2 2 2 2 2 2 2 2 2 2 2 2 2 2 2 2 2 2 2 2 2 3 3 3 3 3 3 3 3 3 4 4 4 4 4 5 5 6 6 6 6 5 5 5 5 6 6 6 7 7 7 7 7 7 7 7 7 8 9
3 2 2 3 2 2 2 2 2 2 2 2 2 2 2 2 2 2 2 2 2 2 2 2 2 3 3 3 3 3 3 3 3 4 4 4 4 4 4 5 5 6 6 6 6 5 5 5 5 6 7 7 7 7 7 7 7 7 7 7 7 7 8
2 2 2 2 2 2 2 2 2 2 2 2 2 2 2 2 2 2 2 2 2 2 2 2 2 2 2 3 3 3 3 3 3 3 3 4 4 4 4 5 5 6 6 6 6 5 5 6 6 6 7 7 7 7 7 7 7 8 8 7 8 7 7
2 2 2 2 2 2 2 2 2 2 2 2 2 2 2 2 2 2 2 2 2 2 2 2 2 2 2 3 3 3 3 3 3 3 4 4 4 4 4 5 5 5 6 6 6 6 5 5 6 6 6 7 7 7 7 8 8 8 8 8 8 8 8
2 2 2 2 2 2 2 2 2 2 2 2 2 2 2 2 2 2 2 2 2 2 2 2 2 2 2 2 2 2 3 3 3 3 3 3 4 4 4 5 5 5 6 6 6 6 6 5 6 6 6 7 7 8 8 8 8 8 8 8 8 9 9
2 2 2 2 2 2 2 2 2 2 2 2 2 2 2 2 2 2 2 2 2 2 2 2 2 2 2 2 2 2 2 3 3 3 3 4 4 4 4 5 5 5 5 6 6 6 5 6 6 6 7 7 7 8 8 8 8 8 8 8 9 9 9
2 2 2 2 2 2 2 2 2 2 2 2 2 2 2 2 2 2 2 2 2 2 2 2 2 2 2 2 2 2 2 3 3 3 3 4 4 4 4 4 5 5 6 6 6 6 6 6 6 6 6 7 7 8 8 8 8 8 8 8 9 9 10
2 3 2 2 2 2 2 2 2 2 2 2 2 2 2 2 2 2 2 2 2 2 2 2 2 2 2 2 2 2 2 3 3 3 3 4 4 4 4 5 5 5 6 6 6 6 6 6 6 6 6 7 7 8 8 9 8 8 8 8 9 10 10
3 3 2 2 2 2 2 2 2 2 2 2 2 2 2 3 2 2 2 2 2 2 2 2 2 2 2 2 2 2 3 3 3 4 4 4 4 4 4 5 5 5 6 7 6 6 6 6 6 6 6 6 7 8 8 9 9 8 8 8 8 9 11
3 3 3 3 2 2 2 2 2 2 2 2 2 2 2 2 2 2 2 2 2 2 2 2 2 2 2 2 2 2 3 3 3 4 4 4 4 4 4 4 5 5 6 6 6 6 6 6 7 6 6 6 7 8 8 9 9 9 8 8 8 9 10
3 3 3 3 3 3 2 2 3 2 2 2 2 2 2 2 2 2 2 2 2 2 2 2 2 2 2 2 3 3 3 3 4 4 4 4 4 4 5 5 5 6 6 6 6 6 6 7 7 7 7 7 7 8 8 9 9 10 9 8 8 8 9
3 3 3 3 3 3 2 3 3 3 3 3 2 2 3 2 2 2 2 2 2 2 2 2 2 2 3 2 3 3 3 3 4 4 4 4 4 4 5 5 5 6 6 6 6 6 6 7 8 7 7 7 7 8 8 9 9 10 10 9 8 8 9
3 3 3 3 3 3 3 3 3 3 3 3 3 3 3 2 2 2 2 2 2 2 2 2 2 2 3 3 3 3 3 3 4 4 4 4 5 5 4 5 6 6 6 6 6 6 7 7 8 8 8 7 7 8 8 8 10 10 10 10 9 9 9
4 3 3 3 3 3 3 3 3 3 3 3 3 3 2 3 2 2 2 2 2 2 2 2 3 3 3 3 3 3 4 4 4 4 4 5 5 5 5 6 6 6 6 6 6 7 7 8 9 9 8 8 8 8 8 8 10 10 10 10 9 9 9
3 3 3 3 3 3 3 3 3 3 3 3 3 3 3 3 2 2 3 3 2 3 3 3 3 3 3 3 3 3 4 4 4 4 5 5 5 5 5 6 6 6 6 6 7 7 7 8 9 9 8 8 8 8 9 9 9 10 10 10 10 10 10
3 3 3 3 3 3 3 3 3 3 3 3 3 3 3 3 3 3 3 3 3 3 3 3 3 3 3 3 3 4 4 4 4 5 5 5 5 5 6 6 6 6 7 7 7 7 8 8 9 9 9 9 9 9 10 10 10 10 10 10 10 10 10
3 3 4 3 3 4 3 3 4 3 3 3 3 3 3 3 3 3 3 3 3 3 3 3 3 3 4 3 3 4 4 5 5 5 6 6 6 6 6 6 6 7 7 7 7 7 8 9 10 9 9 9 9 10 11 10 10 10 10 10 10 10 10
3 3 4 3 4 4 3 4 4 3 3 3 3 3 3 3 3 3 3 3 3 3 3 3 3 4 4 4 4 4 5 5 5 6 6 6 6 6 6 6 7 7 8 8 7 8 8 10 10 10 10 10 10 10 11 11 10 10 10 11 10 10 11
3 3 4 4 4 4 4 4 4 3 3 3 3 3 3 3 3 3 3 3 3 3 3 3 4 4 4 4 5 5 5 6 6 6 6 6 6 6 6 7 8 8 9 8 8 8 9 10 11 11 11 11 11 11 11 11 11 11 11 11 10 10 11
3 3 4 4 4 4 4 4 4 3 3 3 3 3 3 3 3 3 3 4 3 3 4 4 4 4 4 5 5 5 6 6 6 6 6 6 6 6 7 8 9 9 9 9 9 9 10 10 11 11 11 12 12 12 11 11 11 11 11 11 11 11 10
3 3 3 4 4 4 4 4 4 3 3 3 3 3 3 3 3 3 3 4 4 4 4 4 5 5 5 6 6 6 6 5 6 6 6 6 7 7 8 9 10 10 10 10 10 11 11 11 12 12 12 13 13 12 12 12 11 12 11 11 11 11 10
3 3 3 4 4 4 4 4 4 3 3 3 3 3 3 3 3 4 4 4 4 4 4 5 5 5 5 6 6 6 5 5 6 6 7 7 8 8 9 10 10 11 11 12 12 12 12 12 13 13 13 13 13 13 13 13 12 12 12 11 11 10 10
3 3 3 3 4 4 4 4 4 4 3 3 3 3 3 3 3 4 4 4 4 4 5 5 5 6 6 6 6 5 5 5 6 7 7 8 9 9 10 11 11 11 12 13 14 15 15 14 15 15 14 13 13 13 14 14 14 13 12 12 11 10 10
3 3 3 4 4 4 4 4 4 4 3 3 3 4 3 3 4 4 4 4 4 5 5 5 6 6 6 6 6 6 5 6 7 8 9 9 9 10 11 11 11 12 13 15 16 17 18 17 17 16 16 14 13 14 14 15 15 14 13 12 11 11 11
4 4 3 4 4 4 4 4 4 4 4 3 4 4 4 4 4 4 4 4 5 5 6 6 6 6 6 6 6 6 6 7 8 9 9 10 10 11 11 11 12 13 15 17 19 19 20 20 19 18 17 16 15 15 15 15 15 15 14 13 12 11 11
4 4 4 4 4 4 4 4 4 4 4 4 4 4 4 4 4 4 4 5 5 5 6 6 6 6 6 6 6 6 7 8 8 9 10 10 11 12 12 13 14 16 18 19 20 21 22 21 20 19 18 17 16 16 16 16 16 15 14 14 13 12 12
4 4 4 4 4 4 4 5 5 4 4 4 4 4 4 4 4 4 5 5 5 6 6 6 6 6 6 6 6 7 8 9 9 10 11 11 11 12 14 16 17 18 19 21 22 23 23 22 21 20 19 18 18 17 17 16 16 15 15 14 13 13 13
4 4 4 4 4 4 4 5 5 4 4 4 4 4 4 4 5 5 5 5 5 6 6 6 6 6 6 6 7 8 9 10 10 11 11 11 13 15 17 19 20 20 21 23 24 24 24 23 22 21 20 19 18 18 18 18 16 15 15 14 14 14 14
Wind_Speed
102 101 100 98 98 97 97 97 96 95 93 92 91 91 90 88 87 86 85 85 85 85 84 83 83 81 80 78 76 75 74 75 75 75 76 75 74 74 75 78 81 85 87 89 91 93 94 95 98 105 113 120 127 134 139 142 145 147 148 149 150 150 149
96 98 97 95 94 94 95 95 95 94 92 90 88 87 86 85 84 82 81 81 82 82 82 82 80 79 79 77 75 74 74 74 74 74 75 74 73 73 74 77 80 84 86 88 90 92 94 94 96 101 108 115 122 129 135 140 143 146 148 150 150 151 151
91 94 95 94 92 92 92 93 93 93 91 88 85 84 83 82 81 79 78 78 79 80 80 79 78 77 77 76 74 73 73 73 73 73 74 73 71 72 74 76 79 83 85 87 89 91 92 94 95 98 104 111 117 124 130 136 141 145 147 149 151 151 152
89 90 92 92 91 91 91 91 91 91 88 85 82 80 79 79 79 77 75 75 77 78 77 77 76 76 76 74 73 72 72 73 73 73 73 72 70 71 73 75 78 82 84 86 88 89 91 92 94 96 100 106 113 119 125 131 136 141 145 148 150 151 152
89 88 89 90 89 89 89 90 89 88 85 82 78 76 75 76 75 74 72 73 75 75 75 75 74 74 74 73 72 72 72 72 72 73 72 71 70 71 73 74 77 80 83 84 87 88 89 91 92 94 97 102 108 113 119 125 131 136 141 145 148 150 152
91 88 87 87 87 87 87 87 86 85 83 79 75 73 72 72 72 70 70 71 72 73 72 72 72 72 73 72 71 72 72 72 72 72 71 70 70 70 71 73 76 79 81 83 85 87 87 89 91 93 95 98 104 109 114 120 126 131 136 141 144 148 151
89 87 86 86 86 84 83 82 82 81 79 76 73 71 70 69 68 67 67 69 70 70 70 70 70 71 72 71 71 71 72 71 71 71 70 69 69 69 70 72 75 78 79 82 84 85 86 87 89 91 93 96 100 105 109 114 120 125 131 136 140 144 148
84 83 83 84 83 81 80 79 78 78 76 73 70 69 68 67 65 65 66 67 67 67 67 68 68 70 71 71 70 71 71 70 70 69 68 67 68 68 70 72 74 76 78 80 82 84 84 85 87 89 92 94 97 101 105 109 114 120 125 131 136 140 145
79 78 78 80 79 77 76 75 74 74 73 70 68 67 66 64 63 64 64 64 64 65 65 66 68 69 70 70 69 70 69 68 67 67 66 66 67 68 69 71 73 75 77 79 81 82 82 83 85 88 90 93 95 98 102 105 110 115 120 125 131 136 141
75 74 74 75 75 73 72 72 72 71 69 67 65 64 64 63 62 63 62 62 62 63 64 65 67 68 68 68 68 68 67 65 65 65 65 65 67 67 69 71 72 73 75 77 79 80 81 82 84 86 88 91 93 96 99 103 106 111 115 120 126 131 137
70 70 70 71 71 69 68 69 69 68 66 64 62 62 62 62 61 61 61 60 61 61 63 65 66 66 67 67 67 66 65 63 63 64 64 65 66 66 68 70 70 72 74 76 77 78 79 81 83 84 87 90 92 95 97 100 104 108 112 116 121 127 132
68 67 67 67 67 66 65 66 66 65 64 61 59 59 59 59 59 59 60 60 60 61 63 64 65 65 65 66 65 64 63 61 61 62 63 64 65 65 67 69 70 71 73 75 76 77 78 80 81 83 86 88 91 94 95 98 102 105 109 114 118 123 129
66 65 65 63 63 63 64 64 63 62 61 59 58 57 56 57 58 58 59 59 59 60 62 63 64 63 64 65 64 62 61 59 59 61 63 64 64 65 67 69 70 70 72 73 75 76 77 78 80 82 85 87 89 92 94 97 100 104 108 112 116 121 125
64 64 63 61 60 61 61 61 61 59 58 57 56 55 54 55 57 58 59 59 59 60 61 62 62 62 62 63 62 60 59 58 58 60 62 62 63 65 67 69 68 68 70 72 74 75 75 76 78 81 83 86 88 90 93 96 99 103 106 109 113 118 123
63 63 62 60 58 58 59 59 58 57 56 55 56 55 52 53 57 58 58 58 59 59 60 60 60 61 61 61 60 58 56 56 57 59 60 61 63 66 67 67 67 67 68 71 73 74 74 75 77 80 82 84 86 88 92 96 98 101 104 108 111 116 120
61 61 61 59 57 56 56 56 56 54 54 54 54 53 51 52 57 58 57 57 58 57 57 58 59 60 59 58 57 56 55 55 56 58 60 61 63 66 66 66 66 65 67 70 72 72 72 74 76 79 81 83 84 86 90 94 97 99 102 106 110 113 118
58 58 59 58 56 54 54 54 53 52 52 53 52 51 50 52 56 58 56 55 55 55 56 57 58 58 57 56 55 54 54 54 55 57 59 61 63 65 66 65 64 64 66 70 71 70 71 73 76 78 80 81 82 85 88 92 95 98 100 103 107 111 114
57 57 56 56 55 53 52 52 51 50 50 51 50 50 50 51 54 57 55 52 53 55 55 55 56 55 55 55 54 53 53 54 55 57 59 61 63 65 65 64 63 64 66 69 70 69 69 72 75 77 78 79 80 83 87 90 93 96 99 101 103 107 111
56 55 55 54 54 52 50 50 50 48 49 49 48 48 49 51 53 55 53 50 51 53 54 54 54 53 53 53 53 51 51 53 55 57 59 61 62 64 65 63 62 63 65 68 69 68 68 70 73 75 76 78 79 82 84 87 90 94 97 99 101 104 108
55 54 53 52 52 50 49 48 48 47 47 47 47 47 48 50 52 52 51 49 49 52 53 52 52 52 52 52 51 51 51 53 55 57 58 60 61 63 64 62 61 63 65 67 67 66 65 67 71 74 76 78 79 81 82 84 88 91 94 97 99 102 104
53 54 52 51 50 49 47 46 46 45 45 45 45 46 48 49 50 50 49 48 49 50 51 51 51 50 50 51 51 50 50 52 55 56 56 58 60 62 62 61 61 63 65 66 65 63 63 66 70 73 76 77 78 80 80 82 85 89 92 94 97 99 101
52 52 51 49 48 47 45 45 44 44 43 44 44 45 46 48 48 47 47 48 49 49 49 50 50 49 50 51 50 50 50 52 53 53 55 57 59 60 61 62 63 64 64 63 62 61 63 66 69 72 74 76 77 78 79 80 82 86 89 92 94 97 99
50 50 49 47 46 45 44 43 43 42 42 43 43 44 45 46 45 45 47 48 48 47 47 48 49 49 50 50 49 49 50 51 51 52 54 57 59 60 61 63 63 63 61 60 60 61 63 65 68 70 73 74 76 77 78 78 80 83 86 89 92 94 96
48 47 46 45 44 43 42 42 42 41 41 41 42 42 43 44 44 45 46 47 46 46 46 47 48 49 50 49 47 48 49 49 50 52 54 57 59 60 61 62 62 61 59 59 60 61 63 64 66 69 71 72 73 75 76 77 79 81 84 87 89 91 93
47 45 44 44 43 42 41 41 40 39 39 40 41 41 41 43 44 44 45 45 44 45 45 46 47 48 49 47 46 47 48 49 50 52 55 58 60 60 60 60 60 59 59 59 60 61 62 63 65 67 68 70 71 73 75 76 77 78 81 84 87 88 90
46 44 43 43 42 41 40 39 39 38 38 39 40 40 41 42 43 44 43 43 43 44 44 44 46 47 47 46 46 47 48 50 51 54 57 59 60 60 59 58 58 58 59 60 60 60 61 62 63 65 66 68 70 71 72 73 74 76 78 82 84 86 87
44 43 42 42 41 40 39 38 37 37 38 39 39 40 41 42 42 42 42 42 42 43 43 43 44 45 45 45 46 47 49 50 52 54 57 58 59 58 56 55 56 57 58 59 59 60 61 61 62 63 65 66 68 68 69 70 71 73 75 78 81 83 84
42 41 41 41 40 39 38 37 37 37 38 38 39 40 40 41 41 41 42 42 41 41 42 42 43 43 44 45 47 49 50 52 53 55 57 58 57 55 54 54 56 57 58 58 59 59 60 60 61 62 63 64 65 65 66 67 68 71 73 75 78 80 83
40 40 40 39 38 38 37 37 37 37 37 37 38 39 39 40 40 40 40 40 40 40 41 42 42 43 45 47 48 50 51 53 53 55 56 55 54 53 53 54 56 56 57 57 58 59 59 59 59 60 61 62 63 63 64 65 66 68 70 73 75 78 80
39 39 39 38 37 36 36 36 36 36 36 36 37 38 39 39 39 39 39 38 39 40 40 41 42 44 46 47 49 51 52 52 52 53 53 53 52 52 53 54 55 55 56 57 57 57 57 57 57 58 59 60 61 61 61 63 64 66 68 71 73 75 76
38 38 37 36 36 36 36 36 35 35 35 35 36 37 38 38 38 38 37 38 38 39 40 41 43 44 46 48 50 51 50 50 51 51 51 51 52 52 53 54 55 55 56 56 55 55 55 56 56 57 58 58 58 58 59 61 63 65 67 69 70 71 72
37 36 36 35 35 35 35 35 34 34 34 34 35 36 36 37 37 36 36 37 38 39 40 42 43 45 47 48 49 49 49 49 49 50 51 51 51 52 53 54 55 54 54 54 53 54 54 55 55 56 56 56 56 56 57 59 62 64 66 67 68 68 69
36 35 35 34 34 34 34 34 33 33 33 34 34 35 35 35 35 35 36 37 38 39 41 43 44 45 47 48 48 48 48 49 50 51 51 51 51 52 53 53 53 52 52 52 52 53 53 54 54 55 55 55 54 55 56 58 60 62 64 65 66 66 66
34 34 34 33 33 33 33 33 32 32 32 32 33 33 34 34 34 35 36 37 38 40 41 43 45 46 47 48 48 48 48 49 50 51 51 51 51 51 51 51 51 51 51 51 51 52 52 53 53 53 54 53 54 54 55 57 59 61 63 63 64 63 63
33 33 32 32 32 32 32 31 31 31 31 32 32 33 34 34 34 35 36 37 39 40 42 44 46 47 47 47 47 48 49 50 50 50 50 50 50 50 50 50 50 51 51 50 50 50 51 52 52 52 53 53 53 54 54 56 57 59 60 61 61 61 62
32 31 31 30 30 31 31 31 31 31 31 32 32 33 33 34 34 35 36 37 39 41 42 44 45 45 46 46 47 48 49 49 49 50 50 49 48 48 49 49 50 50 50 49 49 50 50 50 51 51 52 52 52 53 53 55 56 57 58 59 59 59 60
Wind_Direction
287 286 285 284 283 282 281 280 279 278 277 276 275 275 274 273 272 271 269 268 267 266 265 264 263 263 262 260 259 257 255 253 252 250 249 247 245 243 240 238 236 234 233 232 232 233 232 229 226 225 224 223 222 222 223 223 223 223 223 223 223 222 222
286 285 284 283 282 282 281 280 280 278 277 276 276 275 274 273 272 270 269 267 266 265 264 263 262 261 260 259 257 255 254 252 251 249 248 247 244 242 239 237 236 234 233 232 232 232 232 230 227 225 225 224 223 222 222 223 223 223 223 223 223 222 222
285 285 285 284 283 282 281 280 279 278 278 277 276 276 275 273 272 270 268 266 265 263 262 261 260 259 258 257 255 254 252 251 249 248 247 245 243 241 239 237 235 234 233 232 232 231 231 231 228 226 225 224 223 222 222 222 222 223 223 223 223 222 222
286 285 285 285 284 282 281 280 279 278 278 278 277 276 274 273 271 269 267 265 263 262 261 260 259 257 257 255 254 252 250 249 248 247 246 244 242 240 238 236 235 234 233 232 231 231 231 230 229 227 225 224 224 222 222 222 222 223 223 223 223 223 222
288 286 285 285 284 283 282 281 280 280 279 279 278 276 274 272 270 268 266 264 262 261 260 258 257 256 255 254 252 251 249 247 247 246 244 243 241 239 237 236 235 234 233 232 231 231 230 230 229 228 225 224 224 223 222 222 222 222 223 223 223 223 222
289 288 286 285 283 282 281 281 281 280 280 279 278 276 273 271 269 268 266 263 261 260 259 257 256 254 254 252 250 249 248 246 245 245 243 242 240 238 237 235 234 233 233 232 231 230 230 229 229 228 226 224 224 223 222 221 221 221 222 223 222 222 222
289 288 287 285 283 282 281 281 280 280 280 279 278 275 273 271 269 267 264 262 260 259 257 256 254 253 252 251 249 248 247 245 244 243 242 241 239 237 236 234 233 233 232 232 231 230 229 228 228 228 227 225 224 223 222 221 221 221 221 222 222 222 222
288 287 286 284 283 282 282 281 280 279 279 278 277 275 273 271 269 266 263 261 259 258 256 255 253 252 251 250 248 247 246 245 243 243 241 240 238 236 234 233 233 232 232 231 231 230 229 228 227 228 227 226 224 223 222 222 221 221 221 221 222 222 222
286 285 283 282 282 282 281 280 279 278 278 277 276 274 272 270 268 265 262 260 259 257 255 253 252 251 250 249 248 247 245 244 243 242 240 238 236 235 233 232 231 231 231 230 230 230 229 228 227 227 227 227 225 223 223 222 222 222 222 221 222 222 222
285 283 282 281 281 281 280 279 278 277 277 276 275 273 271 270 267 265 262 260 258 255 253 251 250 249 249 249 248 247 245 243 242 241 238 236 235 233 232 231 230 230 230 230 229 229 229 228 227 226 226 227 226 224 223 222 222 222 222 222 222 222 222
284 283 282 281 281 280 280 278 278 277 276 275 273 271 270 269 267 265 262 259 257 254 252 250 249 248 248 248 247 246 245 242 240 239 237 235 233 232 231 230 229 229 230 229 229 229 228 228 227 226 225 226 226 225 224 223 223 222 222 222 222 222 222
285 283 282 281 281 280 279 278 277 276 276 274 272 270 269 267 266 263 261 258 255 253 250 249 248 248 247 247 246 245 244 241 239 238 236 234 232 231 229 229 228 228 228 229 228 228 228 227 227 226 225 225 226 226 225 224 223 223 223 222 222 222 222
285 284 283 282 281 280 279 278 277 276 275 274 272 270 268 266 264 261 259 257 254 252 250 249 248 247 246 246 245 244 243 240 237 236 235 233 232 230 228 228 227 227 227 228 228 228 228 227 226 226 226 225 225 225 225 224 224 224 223 223 223 223 223
286 285 283 282 281 280 279 278 277 276 275 274 272 269 267 265 263 259 257 256 253 251 250 249 248 247 246 245 245 243 241 239 236 234 234 233 231 230 228 228 227 226 226 227 228 228 228 227 226 226 226 226 225 225 225 225 224 224 224 223 223 223 223
287 285 284 282 281 279 278 277 276 275 274 273 271 269 267 264 262 258 256 255 253 251 250 249 248 248 247 246 244 242 240 238 235 233 232 231 231 230 228 227 226 225 225 226 227 228 228 227 226 226 226 226 226 225 225 226 225 224 224 224 223 223 223
286 285 283 282 281 279 278 276 275 275 274 272 270 269 267 263 260 258 255 254 253 252 250 250 249 248 247 246 244 242 239 236 234 232 231 230 230 230 228 227 226 224 224 226 227 227 227 227 227 227 226 226 226 225 225 226 226 225 224 224 224 223 223
285 284 283 282 280 279 278 277 275 274 273 271 269 268 265 261 259 257 255 253 253 251 250 249 249 248 248 246 244 241 238 235 233 231 230 230 230 230 229 227 225 223 224 225 226 226 226 227 227 227 227 226 226 226 226 226 226 226 225 224 224 224 223
285 284 282 281 280 279 278 277 276 274 272 271 269 266 263 260 257 257 255 252 251 250 249 248 248 248 247 245 243 240 237 234 232 230 230 230 230 230 229 227 225 223 224 225 226 226 225 226 227 228 227 227 226 226 226 226 226 226 227 226 225 224 224
286 284 282 281 280 279 278 277 276 274 272 270 268 265 262 258 256 256 255 251 249 249 249 247 247 247 245 244 242 239 236 233 232 230 230 230 230 230 230 228 225 224 224 225 226 225 225 226 227 228 228 228 227 227 226 226 226 226 227 227 226 225 224
285 284 282 281 280 279 278 276 275 273 271 269 266 263 260 258 255 255 254 251 248 247 248 247 245 244 244 242 240 238 235 233 232 231 230 230 231 231 231 229 226 225 225 226 226 225 224 225 226 228 228 228 228 228 227 226 226 226 227 227 227 227 225
285 283 282 281 280 279 277 276 274 272 270 267 264 261 258 257 255 254 253 250 247 245 246 246 244 242 242 241 239 237 234 233 232 232 231 231 231 232 231 229 227 226 226 226 226 225 224 225 226 227 228 228 228 228 228 227 226 227 227 227 227 227 227
284 283 282 281 280 278 277 275 273 271 268 266 263 260 258 256 255 253 251 248 246 244 243 243 243 241 239 238 237 235 234 233 232 232 231 231 232 231 231 230 228 227 227 226 226 225 224 225 225 226 227 228 228 229 228 228 227 227 227 227 227 227 227
284 283 282 281 279 277 276 274 272 269 267 264 262 259 257 256 254 251 249 247 245 243 241 240 240 240 238 237 235 234 234 233 232 232 231 231 231 231 230 230 230 229 228 227 226 226 225 225 225 226 227 228 228 228 229 228 228 228 228 227 227 227 227
284 283 282 281 279 277 275 273 271 269 266 263 261 259 256 254 252 249 248 247 245 242 240 238 238 238 238 236 234 233 234 233 232 231 231 231 231 230 230 230 230 230 229 228 227 226 226 225 226 227 227 227 228 228 229 229 228 228 229 228 228 227 227
284 283 282 280 278 276 274 272 271 268 265 263 260 258 255 252 250 248 247 246 244 242 240 238 237 237 237 236 233 232 232 232 230 230 230 230 230 230 229 230 230 230 230 229 228 227 226 226 227 227 228 228 227 228 228 229 229 229 229 229 229 228 228
285 284 282 280 278 276 274 272 271 268 265 262 259 256 253 251 249 248 246 245 243 241 239 237 235 235 235 234 232 231 231 230 229 229 229 230 230 230 229 229 229 229 230 229 229 228 228 227 227 228 228 228 228 228 228 229 230 230 230 230 230 229 229
285 284 281 279 277 276 274 272 270 268 264 261 258 255 252 250 248 246 245 243 241 239 238 236 235 234 233 233 232 230 230 229 229 229 230 230 230 230 230 229 229 229 229 230 230 229 229 228 228 228 228 229 229 229 229 229 230 231 231 231 231 230 230
285 282 280 278 277 276 274 272 270 267 264 261 259 256 252 250 247 245 243 242 240 238 237 235 234 233 232 231 230 229 229 228 228 228 229 230 230 230 229 228 228 228 229 230 230 230 229 229 229 229 229 230 230 230 230 230 231 232 232 231 231 231 230
284 281 279 277 276 275 273 271 269 267 264 261 259 256 253 250 247 245 242 240 238 237 235 233 232 230 229 229 228 228 228 228 228 228 229 230 230 229 228 227 227 228 229 229 230 230 230 230 230 230 230 230 231 231 232 232 233 233 233 233 232 232 231
283 280 278 277 275 274 272 271 269 267 265 262 259 256 253 250 247 244 242 239 237 235 234 232 230 229 228 228 228 229 229 228 228 229 229 230 229 228 227 227 227 227 228 229 230 230 231 231 231 231 231 231 231 232 233 234 234 235 235 235 234 233 233
282 279 277 276 274 273 271 270 269 267 265 262 258 255 252 249 246 243 240 237 234 233 232 230 229 228 228 228 229 229 229 228 228 228 228 228 227 227 226 226 226 226 227 228 229 230 231 232 232 232 232 232 232 233 234 235 236 236 236 236 236 235 234
281 279 276 274 273 271 270 269 268 267 265 261 258 254 251 247 244 241 238 235 233 231 230 229 228 228 228 229 229 229 228 228 227 227 227 226 226 225 225 225 225 226 226 227 229 230 231 232 233 233 234 234 234 234 235 236 237 238 238 238 238 237 236
281 278 275 273 272 271 270 269 268 267 264 261 257 253 249 245 242 238 235 232 230 228 228 227 227 227 228 228 228 228 227 226 226 226 225 225 224 224 224 225 225 225 226 226 228 229 231 232 233 234 235 235 235 235 236 236 237 238 239 240 239 239 238
280 277 274 273 271 271 270 269 268 266 263 259 255 250 246 242 238 235 232 230 228 227 226 226 226 226 227 227 227 227 226 225 225 225 225 224 223 223 223 224 224 224 225 226 227 229 230 232 233 235 236 236 237 236 236 237 238 239 240 240 240 240 239
279 276 274 272 271 270 269 269 267 265 261 256 251 247 243 239 235 232 230 228 226 225 225 225 226 226 227 226 226 225 225 224 224 224 224 223 222 222 222 222 223 224 225 226 227 229 230 232 233 235 236 237 237 237 237 238 238 239 239 240 240 240 239
278 276 274 272 270 269 268 267 266 263 259 254 249 245 241 238 234 231 229 227 226 226 226 227 227 227 226 225 225 224 224 224 224 223 223 222 221 220 220 222 223 224 225 226 228 229 231 232 234 235 236 237 237 237 238 238 238 238 239 240 240 240 239